Regional Weather Roundup
Issued by NWS

Home | Current Version | Previous Version | Text Only | Print | Product List | Glossary Off
Versions: 1 2 3 4 5 6 7 8 9 10 11 12 13 14 15 16 17 18 19 20 21 22 23 24 25 26 27 28 29 30 31 32 33 34 35 36 37 38 39 40 41 42 43 44 45 46 47 48 49 50

090
ASUS43 KMKX 100221
RWRWI

WISCONSIN REGIONAL WEATHER ROUNDUP
NATIONAL WEATHER SERVICE MILWAUKEE/SULLIVAN WI
800 PM CST TUE FEB 09 2016

NOTE: "FAIR" INDICATES FEW OR NO CLOUDS BELOW 12,000 FEET WITH NO
SIGNIFICANT WEATHER AND/OR OBSTRUCTIONS TO VISIBILITY.

WIZ001-002-006>008-014>016-023>028-100300-
NORTHWEST WISCONSIN

CITY           SKY/WX    TMP DP  RH WIND       PRES   REMARKS
SUPERIOR ARPT  CLEAR      7  -4  60 N5        30.15S WCI  -2
ASHLAND        CLOUDY     9   2  73 N13       30.09S WCI  -7
HAYWARD        CLEAR      6  -4  63 N6        30.06R WCI  -4
SIREN          CLEAR      6  -7  54 NW6       30.12S WCI  -4
CUMBERLAND     CLEAR      7  -8  51 N10       30.06S WCI  -8
RICE LAKE      CLEAR      8  -6  53 NW5       30.09R WCI   0
CHETEK         CLEAR      7  -5  58 N6        30.07R WCI  -4
LADYSMITH      CLOUDY    10   0  62 NW12G17   30.03F WCI  -5
EAU CLAIRE     CLEAR     10  -6  48 NW9       30.06R WCI  -3
MENOMONIE      CLEAR     12  -5  47 NW12G18   30.08S WCI  -2
NEW RICHMOND   CLEAR      8  -4  58 NW9       30.11S WCI  -6
OSCEOLA        CLEAR     10  -3  57 NW9       30.15S WCI  -3
$$

WIZ003>005-009-010-017-018-100300-
NORTH CENTRAL WISCONSIN

CITY           SKY/WX    TMP DP  RH WIND       PRES   REMARKS
MANITOWISH WTR FLURRIES   8   2  78 N13G21    29.93F WCI  -8
ARBOR VITAE    LGT SNOW  11   7  82 N8        29.92F WCI   0
WOODRUFF       LGT SNOW  11   7  82 N8        29.92F WCI   0
RHINELANDER    LGT SNOW   8   2  76 NW9       29.90F WCI  -5
EAGLE RIVER    LGT SNOW   9   1  72 N10G21    29.90S WCI  -6
LAND O LAKES   LGT SNOW   9   4  80 N15G22    29.91S WCI  -8
PHILLIPS       CLOUDY     8   0  71 N13G18    29.96F WCI  -8
TOMAHAWK       CLOUDY     8   1  72 NW9G16    29.94F WCI  -5
MEDFORD        CLOUDY     8   1  70 N14G21    29.95F WCI  -8
MERRILL        CLOUDY     9   1  68 N8        29.96F WCI  -3
$$

WIZ029-030-035-036-043>047-100300-
CENTRAL WISCONSIN

CITY           SKY/WX    TMP DP  RH WIND       PRES   REMARKS
WAUSAU         CLOUDY    11   0  61 NW12G22   29.95S WCI  -3
MOSINEE        CLOUDY     9   1  72 NW14G29   29.98R WCI  -8
MARSHFIELD     CLOUDY    10  -1  61 N14       29.97F WCI  -6
STEVENS POINT  CLOUDY     9  -1  62 NW17G23   29.98S WCI  -9
WAUPACA        CLOUDY    16   3  56 NW13G24   29.97R WCI   2
WAUTOMA        CLOUDY    13   1  58 NW15G24   29.99R WCI  -3
WISC RAPIDS    CLOUDY    11   0  61 N10       30.00S WCI  -3
CAMP DOUGLAS   PTCLDY     9   1  72 NW12      30.01F WCI  -6
$$

WIZ011>013-019>022-031-037>040-048>050-100300-
NORTHEAST WISCONSIN

CITY           SKY/WX    TMP DP  RH WIND       PRES   REMARKS
ANTIGO         CLOUDY     9   1  72 N16G28    29.91S HAZE    WCI  -9
SHAWANO        CLOUDY    16   4  58 NW7G17    29.95R WCI   6
OCONTO         CLOUDY    13   7  79 NW7       29.94R WCI   2
STURGEON BAY   CLOUDY    12   3  67 NW14G23   29.91R WCI  -3
GREEN BAY      LGT SNOW  14   7  73 N9        29.94R WCI   2
MANITOWOC      LGT SNOW  15  10  80 NW18      29.91R WCI  -2
APPLETON       MOCLDY    16   1  53 NW20      29.91R WCI  -1
CLINTONVILLE   CLOUDY    14   3  62 N13G21    29.95R WCI   0
OSHKOSH        CLOUDY    16   5  62 NW13      29.93R WCI   2
$$

WIZ032>034-041-042-053>061-100300-
SOUTHWEST WISCONSIN

CITY           SKY/WX    TMP DP  RH WIND       PRES   REMARKS
LA CROSSE      CLEAR      7  -4  60 NW8       30.07S WCI  -6
SPARTA         CLEAR      7  -1  70 CALM      30.05S
VIROQUA        CLEAR      6  -2  68 NW7       29.99F WCI  -5
BOSCOBEL       PTCLDY    12   0  58 VRB3      30.06S
PRAIRIE DU CHI CLEAR     11   0  59 CALM      30.07S
PLATTEVILLE    CLEAR     10   0  61 NW9       30.01S WCI  -2
$$

WIZ056-057-062-063-064-067-068-100300-
SOUTH CENTRAL WISCONSIN

CITY           SKY/WX    TMP DP  RH WIND       PRES   REMARKS
REEDSBURG      MOCLDY    10  -1  61 NW9G18    30.01S WCI  -3
BARABOO/DELLS  CLOUDY    10  -1  59 NW10G17   29.99S WCI  -3
LONE ROCK      CLEAR     11  -2  56 NW12      30.04R WCI  -3
MINERAL POINT  CLEAR     12   0  57 NW10G18   29.99S WCI  -1
MADISON        CLOUDY    12   0  58 NW13G18   29.98R WCI  -3
MIDDLETON      CLOUDY    14   1  57 NW15      29.99R WCI  -2
WATERTOWN      CLOUDY    14   6  70 NW15G23   29.94S WCI  -1
MONROE         CLOUDY    14   3  62 NW15      29.97R WCI  -1
JANESVILLE     CLOUDY    16   7  67 NW17G23   29.96S WCI   0
$$

WIZ051-052-058>065-066-070>072-100300-
SOUTHEAST WISCONSIN

CITY           SKY/WX    TMP DP  RH WIND       PRES   REMARKS
MILWAUKEE      LGT SNOW  16  10  77 NW10      29.92R WCI   4
WAUKESHA       LGT SNOW  12   9  85 NW17      29.92S WCI  -5
MILWAUKEE/TIMM LGT SNOW  16  10  79 W8        29.92R WCI   5
RACINE         FLURRIES  15   9  76 W10       29.93R WCI   2
BURLINGTON     LGT SNOW  13   8  80 NW15      29.93S WCI  -3
KENOSHA        CLOUDY    15   8  73 NW16G22   29.92S WCI  -1
FOND DU LAC    CLOUDY    16   6  65 N14       29.93R WCI   2
SHEBOYGAN      LGT SNOW  15   8  73 N15       29.90S WCI   0
WEST BEND      LGT SNOW  16  10  79 NW10      29.91R WCI   3
JUNEAU         CLOUDY    13   5  71 NW13G22   29.94R WCI  -2
$$

LSZ147-162-100300-
LAKE SUPERIOR

STATION/POSITION TIME  TEMP    WIND        PRES    WAVE
                       AIR SEA DIR/SP/G            HT/PER
                 (UTC) (F)     (DEG/KT/KT) (MB)    (FT/S)
DEVILS ISLAND    0200    9      10/ 17/ 22 1021.0R
PORT WING        0100   11     340/ 15/ 20 1020.0
SAXON HARBOR     0100   12                 1017.9S
$$

LMZ867-665-643>646-100300-
LAKE MICHIGAN

STATION/POSITION TIME  TEMP    WIND        PRES    WAVE
                       AIR SEA DIR/SP/G            HT/PER
                 (UTC) (F)     (DEG/KT/KT) (MB)    (FT/S)
CHAMBERS ISLAND  0140   14     300/ 15/ 25 1012.2S
ALGOMA LAKESHORE 0111          320/ 16/ 26   N/A
KEWAUNEE LAKESHO 0200   14     350/ 12/ 22 1012.0R
SHEBOYGAN LAKESH 0200   16     320/ 17/ 20 1014.3R
PORT WASHINGTON  0100   18     310/  8/ 13 1013.9
MILWAUKEE LAKESH 0110   17     290/ 10/ 13   N/A
KENOSHA   LAKESH 0200   16     290/ 13/ 20 1013.2S
$$

TC  - TEMPERATURE IN CELSIUS
VSB - VISIBILITY IN STATUTE MILES
WCI - WIND CHILL INDEX
HX  - HEAT INDEX





USA.gov is the U.S. government's official web portal to all federal, state and local government web resources and services.